Tracking 29892 objects as of 21-Nov-2024
HD Live streaming from Space Station
objects crossing your sky now

CZ-2 DEB

Track CZ-2 DEB now!
10-day predictions


NORAD ID: 38664
Int'l Code: 2012-029F
Perigee: 1,117.0 km
Apogee: 1,324.5 km
Inclination: 100.1 °
Period: 109.7 minutes
Semi major axis: 7591 km
RCS: 0.0017 m2 (small)
Launch date: May 29, 2012
Source: People's Republic of China (PRC)
Launch site: Taiyaun Space Center, China (TSC)

Note: This is SATELLITE DEBRIS
Your satellite tracking list
Your tracking list is empty




NASA's NSSDC Master Catalog

Two Line Element Set (TLE):
1 38664U 12029F   24321.08327015  .00000158  00000-0  53248-3 0  9998
2 38664 100.0875 273.9868 0136644 269.4751  89.0702 13.12469223534787
Source of the keplerian elements: AFSPC